Location: Mascot Post Office (historical)
(40.2645°N, 99.5462°W)
Time: 02:38:44
(UTC+00:00)

Cosmos 1943 Rocket - Pass Details

Date: 14 July 2020
Orbit: 811 x 845 km, 71.0° (Epoch: 14 August)

Event Time Altitude Azimuth Distance (km) Brightness Sun altitude
Rises 06:34:49 0° 322° (NW) 3,407 6.1 -28.1°
Reaches altitude 10° 06:37:49 10° 307° (NW) 2,464 5.1 -28.1°
Enters shadow 06:41:24 21° 268° (W) 1,807 3.9 -28.1°
